Flag for Bolivia Weather past 2 weeks in Santa Cruz, Bolivia

Now
73 °F

Clear.


Feels Like: 76 °F
Forecast: 72 / 91 °F
Wind: 6 mph from North

Location: Viru-Viru

Current Time: Aug 23, 2014 at 12:01:30 AM

Latest Report: Aug 22, 2014 at 11:00 PM


Visibility: N/A

Pressure: 29.83 "Hg

Humidity: 69%

Dew point: 63 °F

Location of Santa CruzLocation

Historic Weather in Santa Cruz — Graph

°F

Santa Cruz temperature yesterday

Maximum temperature yesterday: 91 °F (at 1:00 PM)
Minimum temperature yesterday: 64 °F (at 4:00 AM)
Average temperature yesterday: 78 °F

Past Weeks' High & Low Weather Summary

 TemperatureHumidityPressure
High93 °F (Aug 21, 2:00 PM)100% (Aug 11, 5:00 AM)30.33 "Hg (Aug 11, 5:00 AM)
Low54 °F (Aug 15, 4:00 AM)20% (Aug 13, 4:00 PM)29.80 "Hg (Aug 10, 3:00 PM)
Average72 °F61%30.02 "Hg
* Reported Aug 7 11:00 PM — Aug 22 11:00 PM, Santa Cruz, Weather by CustomWeather, © 2014

Note: Actual official high and low records may vary slightly from our data, if they occured in-between our weather recording intervals... More about our weather records

Advertising

Santa Cruz weather history for previous 24 hours

 ConditionsComfort  
Time TempWeatherWind HumidityBarometerVisibility
11:00 PM
Aug 22
73 °FClear.6 mph69%29.83 "HgN/A
10:00 PM77 °FClear.10 mph61%29.83 "HgN/A
9:00 PM77 °FClear.10 mph61%29.83 "HgN/A
8:00 PM75 °FClear.7 mph61%29.80 "HgN/A
7:00 PM79 °FPassing clouds.9 mph54%29.80 "HgN/A
6:00 PM84 °FScattered clouds.14 mph40%29.80 "HgN/A
5:00 PM88 °FPassing clouds.23 mph33%29.80 "HgN/A
4:00 PM90 °FPassing clouds.25 mph33%29.80 "HgN/A
3:00 PM91 °FPassing clouds.23 mph30%29.80 "HgN/A
2:00 PM91 °FPassing clouds.29 mph30%29.83 "HgN/A
1:00 PM91 °FPassing clouds.29 mph30%29.89 "HgN/A
12:00 PM90 °FPassing clouds.28 mph33%29.89 "HgN/A
11:00 AM88 °FClear.21 mph38%29.92 "HgN/A
10:03 AM84 °FClear.18 mph45%29.92 "HgN/A
10:00 AM84 °FClear.17 mph45%29.92 "HgN/A
9:00 AM79 °FClear.14 mph54%29.92 "HgN/A
8:00 AM72 °FClear.10 mph73%29.89 "HgN/A
7:00 AM66 °FPassing clouds.8 mph88%29.89 "HgN/A
6:00 AM66 °FPassing clouds.7 mph88%29.86 "HgN/A
5:00 AM66 °FClear.3 mph83%29.86 "HgN/A
4:00 AM64 °FClear.5 mph88%29.86 "HgN/A
3:00 AM66 °FClear.6 mph83%29.86 "HgN/A
2:00 AM68 °FClear.7 mph83%29.86 "HgN/A
1:00 AM70 °FClear.8 mph78%29.89 "HgN/A
12:00 AM70 °FClear.6 mph78%29.89 "HgN/A
Weather by CustomWeather, © 2014

See weather overviewHow to use our weather pages